Weather History for Vicksburg, MS

Change the Weather History Date:

Friday, September 16, 2011

  Actual Average Record
Temperature  
Mean Temperature 69 °F 75 °F  
Max Temperature 80 °F 87 °F 100 °F (1980)
Min Temperature 57 °F 64 °F 44 °F (1961)
Degree Days  
Heating Degree Days 0 0  
Month to date heating degree days 1 0  
Since 1 July heating degree days 1 0  
Cooling Degree Days 4 10  
Month to date cooling degree days 148 192  
Year to date cooling degree days 2380 1981  
Growing Degree Days 18 (Base 50)    
Moisture  
Dew Point 53 °F    
Average Humidity 65    
Maximum Humidity 93    
Minimum Humidity 36    
Precipitation  
Precipitation 0.00 in 0.10 in 0.92 in (1962)
Month to date precipitation 4.37 1.84  
Year to date precipitation 26.14 38.41  
Sea Level Pressure  
Sea Level Pressure 30.18 in    
Wind  
Wind Speed 6 mph (NE)    
Max Wind Speed 12 mph    
Max Gust Speed 16 mph    
Visibility 10 miles    
Events      
T = Trace of Precipitation, MM = Missing Value Source: NWS Daily Summary

Daily Weather History Graph

Daily Weather History Graph

Search for Another Location

Airport:

Trip Planner

Search our weather history database for the weather conditions in past years. The results will help you decide how hot, cold, wet, or windy it might be!

Date:

Astronomy

Sep. 16, 2011 Rise Set
Actual Time 6:48 AM CDT 7:09 PM CDT
Civil Twilight 6:23 AM CDT 7:33 PM CDT
Nautical Twilight 5:55 AM CDT 8:02 PM CDT
Astronomical Twilight 5:25 AM CDT 8:31 PM CDT
Moon 9:19 PM CDT (9/16) 10:35 AM CDT (9/16)
Length of Visible Light 13h 09m
Length of Day
12h 20m
Waning Gibbous, 84% of the Moon is Illuminated
Sep 16
Waning Gibbous
Sep 20
Last Quarter
Sep 27
New
Oct 3
First Quarter
Oct 11
Full

Hourly Weather History & Observations

Time (CDT) Temp. Dew Point Humidity Pressure Visibility Wind Dir Wind Speed Gust Speed Precip Events Conditions
12:53 AM 61.0 °F 57.0 °F 87% 30.17 in 10.0 mi ENE 3.5 mph - N/A   Clear
1:53 AM 61.0 °F 57.0 °F 87% 30.16 in 10.0 mi ENE 4.6 mph - N/A   Clear
2:53 AM 60.1 °F 57.0 °F 90% 30.14 in 9.0 mi ENE 3.5 mph - N/A   Clear
3:53 AM 61.0 °F 57.0 °F 87% 30.14 in 10.0 mi NNE 5.8 mph - N/A   Clear
5:53 AM 57.0 °F 55.9 °F 96% 30.18 in 4.0 mi North 3.5 mph - N/A   Clear
6:53 AM 57.0 °F 55.0 °F 93% 30.19 in 6.0 mi NNE 6.9 mph - N/A   Clear
7:53 AM 61.0 °F 55.9 °F 83% 30.19 in 9.0 mi NE 4.6 mph - N/A   Clear
8:53 AM 63.0 °F 54.0 °F 72% 30.21 in 10.0 mi NE 6.9 mph - N/A   Clear
9:53 AM 66.9 °F 54.0 °F 63% 30.23 in 10.0 mi NE 5.8 mph - N/A   Clear
10:53 AM 69.1 °F 54.0 °F 58% 30.22 in 10.0 mi East 5.8 mph - N/A   Clear
11:53 AM 73.9 °F 53.1 °F 48% 30.22 in 10.0 mi Variable 4.6 mph - N/A   Clear
12:53 PM 77.0 °F 52.0 °F 42% 30.21 in 10.0 mi Variable 6.9 mph - N/A   Clear
1:53 PM 79.0 °F 52.0 °F 39% 30.19 in 10.0 mi Variable 5.8 mph - N/A   Clear
2:53 PM 79.0 °F 51.1 °F 38% 30.16 in 10.0 mi North 10.4 mph - N/A   Clear
3:53 PM 79.0 °F 51.1 °F 38% 30.15 in 10.0 mi NNE 8.1 mph - N/A   Clear
5:53 PM 77.0 °F 48.9 °F 37% 30.14 in 10.0 mi North 10.4 mph - N/A   Clear
6:53 PM 72.0 °F 48.9 °F 44% 30.15 in 10.0 mi NNE 8.1 mph - N/A   Clear
7:53 PM 69.1 °F 50.0 °F 51% 30.15 in 10.0 mi NE 4.6 mph - N/A   Clear
8:53 PM 68.0 °F 51.1 °F 55% 30.17 in 10.0 mi NE 4.6 mph - N/A   Clear
9:53 PM 66.9 °F 52.0 °F 59% 30.17 in 10.0 mi ENE 6.9 mph - N/A   Clear
10:53 PM 64.9 °F 52.0 °F 63% 30.16 in 10.0 mi ENE 5.8 mph - N/A   Clear
11:53 PM 64.0 °F 53.1 °F 67% 30.16 in 10.0 mi ENE 4.6 mph - N/A   Clear